TimePDT,TemperatureF,Dew PointF,Humidity,Sea Level PressureIn,VisibilityMPH,Wind Direction,Wind SpeedMPH,Gust SpeedMPH,PrecipitationIn,Events,Conditions,WindDirDegrees,DateUTC
12:12 AM,64.4,59.0,83,29.83,10.0,Calm,Calm,-,N/A,,Mostly Cloudy,0,2013-06-24 07:12:00
12:56 AM,64.0,59.0,84,29.84,10.0,NNW,3.5,-,N/A,,Overcast,330,2013-06-24 07:56:00
1:56 AM,64.0,60.1,87,29.83,10.0,North,4.6,-,N/A,,Overcast,350,2013-06-24 08:56:00
2:19 AM,64.4,60.8,88,29.82,10.0,North,4.6,-,N/A,,Overcast,360,2013-06-24 09:19:00
2:35 AM,64.4,60.8,88,29.82,10.0,Calm,Calm,-,N/A,,Partly Cloudy,0,2013-06-24 09:35:00
2:53 AM,64.4,59.0,83,29.82,10.0,NNW,6.9,-,N/A,,Mostly Cloudy,340,2013-06-24 09:53:00
2:56 AM,64.0,59.0,84,29.83,10.0,North,5.8,-,N/A,,Mostly Cloudy,350,2013-06-24 09:56:00
3:33 AM,62.6,59.0,88,29.81,10.0,NNW,9.2,-,N/A,,Overcast,340,2013-06-24 10:33:00
3:43 AM,62.6,59.0,88,29.81,10.0,NNW,6.9,-,N/A,,Overcast,340,2013-06-24 10:43:00
3:56 AM,63.0,59.0,87,29.82,10.0,NNW,5.8,-,N/A,,Overcast,340,2013-06-24 10:56:00
4:56 AM,62.1,57.9,86,29.83,10.0,NNW,6.9,-,N/A,,Overcast,330,2013-06-24 11:56:00
5:56 AM,62.1,57.9,86,29.84,10.0,North,8.1,-,0.00,Rain,Light Rain,360,2013-06-24 12:56:00
6:56 AM,61.0,57.9,90,29.85,10.0,North,5.8,-,0.00,Rain,Light Rain,360,2013-06-24 13:56:00
7:56 AM,61.0,57.9,90,29.87,10.0,North,9.2,-,0.00,Rain,Light Rain,350,2013-06-24 14:56:00
8:56 AM,61.0,57.9,90,29.88,10.0,NNE,5.8,-,0.02,,Overcast,20,2013-06-24 15:56:00
9:56 AM,62.1,57.9,86,29.89,10.0,North,3.5,-,N/A,,Overcast,360,2013-06-24 16:56:00
10:17 AM,62.6,57.2,82,29.89,10.0,Calm,Calm,-,N/A,,Overcast,0,2013-06-24 17:17:00
10:56 AM,63.0,57.9,84,29.90,10.0,North,3.5,-,N/A,,Overcast,350,2013-06-24 17:56:00
11:24 AM,62.6,57.2,82,29.89,10.0,Variable,5.8,-,N/A,,Overcast,0,2013-06-24 18:24:00
11:56 AM,64.0,59.0,84,29.90,10.0,NNW,5.8,-,N/A,,Overcast,340,2013-06-24 18:56:00
12:02 PM,64.4,59.0,83,29.90,10.0,NW,4.6,-,N/A,,Overcast,320,2013-06-24 19:02:00
12:11 PM,62.6,59.0,88,29.90,10.0,NNW,6.9,-,N/A,,Overcast,330,2013-06-24 19:11:00
12:44 PM,62.6,60.8,94,29.90,6.0,NNW,5.8,-,0.00,,Overcast,330,2013-06-24 19:44:00
12:56 PM,64.0,61.0,90,29.91,6.0,North,8.1,-,0.00,Rain,Light Rain,350,2013-06-24 19:56:00
1:07 PM,64.4,60.8,88,29.89,8.0,North,8.1,-,0.00,,Overcast,350,2013-06-24 20:07:00
1:54 PM,64.4,59.0,83,29.90,10.0,NNW,9.2,-,0.00,,Overcast,340,2013-06-24 20:54:00
1:56 PM,64.9,59.0,81,29.91,10.0,North,10.4,-,0.00,,Overcast,350,2013-06-24 20:56:00
2:47 PM,64.4,57.2,77,29.90,10.0,NNW,8.1,-,N/A,,Overcast,340,2013-06-24 21:47:00
2:56 PM,64.0,57.9,80,29.91,10.0,North,8.1,-,N/A,,Overcast,350,2013-06-24 21:56:00
3:31 PM,64.4,57.2,77,29.90,10.0,North,9.2,-,N/A,,Overcast,360,2013-06-24 22:31:00
3:56 PM,64.9,57.9,78,29.90,10.0,North,3.5,-,N/A,,Overcast,360,2013-06-24 22:56:00
4:56 PM,64.9,59.0,81,29.90,10.0,NNW,6.9,-,0.01,,Overcast,340,2013-06-24 23:56:00
5:56 PM,64.9,61.0,87,29.90,10.0,North,5.8,-,0.00,,Overcast,350,2013-06-25 00:56:00
6:56 PM,64.0,60.1,87,29.90,10.0,North,5.8,-,N/A,,Overcast,350,2013-06-25 01:56:00
7:56 PM,64.0,60.1,87,29.91,10.0,NW,3.5,-,N/A,,Overcast,310,2013-06-25 02:56:00
8:56 PM,64.0,60.1,87,29.92,10.0,NNW,3.5,-,N/A,,Overcast,330,2013-06-25 03:56:00
9:56 PM,64.0,60.1,87,29.92,10.0,Calm,Calm,-,N/A,,Overcast,0,2013-06-25 04:56:00
10:56 PM,64.9,57.9,78,29.93,10.0,SSE,5.8,-,N/A,,Overcast,150,2013-06-25 05:56:00
11:56 PM,64.9,57.9,78,29.93,10.0,SSE,4.6,-,0.00,,Overcast,150,2013-06-25 06:56:00